Weather History for Poplar Bluff, MO

Change the Weather History Date:

Monday, July 30, 2012

  Actual Average Record
Temperature  
Mean Temperature 85 °F -  
Max Temperature 97 °F 89 °F 104 °F (1980)
Min Temperature 73 °F 68 °F 52 °F (1925)
Cooling Degree Days 20    
Growing Degree Days 35 (Base 50)    
Moisture  
Dew Point 73 °F    
Average Humidity 71    
Maximum Humidity 91    
Minimum Humidity 43    
Precipitation  
Precipitation 0.00 in - - ()
Sea Level Pressure  
Sea Level Pressure 29.86 in    
Wind  
Wind Speed 6 mph (SE)    
Max Wind Speed 12 mph    
Max Gust Speed 17 mph    
Visibility 10 miles    
Events      
Averages and records for this station are not official NWS values.
T = Trace of Precipitation, MM = Missing Value Source: NWS Daily Summary

Daily Weather History Graph

Daily Weather History Graph

Search for Another Location

Airport:

Trip Planner

Search our weather history database for the weather conditions in past years. The results will help you decide how hot, cold, wet, or windy it might be!

Date:

Astronomy

Jul. 30, 2012 Rise Set
Actual Time 6:05 AM CDT 8:09 PM CDT
Civil Twilight 5:37 AM CDT 8:37 PM CDT
Nautical Twilight 5:01 AM CDT 9:12 PM CDT
Astronomical Twilight 4:24 AM CDT 9:50 PM CDT
Moon 6:09 PM CDT (7/30) 3:22 AM CDT (7/30)
Length of Visible Light 15h 00m
Length of Day
14h 03m
Waxing Gibbous, 92% of the Moon is Illuminated
Jul 30
Waxing Gibbous
Aug 1
Full
Aug 9
Last Quarter
Aug 17
New
Aug 24
First Quarter

Hourly Weather History & Observations

Time (CDT) Temp. Heat Index Dew Point Humidity Pressure Visibility Wind Dir Wind Speed Gust Speed Precip Events Conditions
12:53 AM 75.0 °F - 71.1 °F 87% 29.91 in 10.0 mi SE 5.8 mph - N/A   Clear
1:53 AM 73.9 °F - 71.1 °F 91% 29.90 in 9.0 mi ESE 3.5 mph - N/A   Clear
2:53 AM 73.9 °F - 70.0 °F 87% 29.89 in 9.0 mi Calm Calm - N/A   Clear
3:53 AM 75.0 °F - 70.0 °F 84% 29.88 in 10.0 mi SE 6.9 mph - N/A   Scattered Clouds
4:53 AM 75.0 °F - 69.1 °F 82% 29.88 in 10.0 mi SSE 9.2 mph - N/A   Partly Cloudy
5:53 AM 75.0 °F - 69.1 °F 82% 29.88 in 10.0 mi South 9.2 mph - N/A   Clear
6:53 AM 75.0 °F - 69.1 °F 82% 29.90 in 10.0 mi South 8.1 mph 17.3 mph N/A   Clear
7:53 AM 77.0 °F - 70.0 °F 79% 29.90 in 10.0 mi Variable 5.8 mph - N/A   Clear
8:53 AM 80.1 °F 83.8 °F 72.0 °F 76% 29.88 in 10.0 mi SSW 9.2 mph - N/A   Partly Cloudy
9:53 AM 82.0 °F 87.4 °F 73.0 °F 74% 29.87 in 10.0 mi SSW 11.5 mph - N/A   Scattered Clouds
10:53 AM 87.1 °F 96.3 °F 75.0 °F 67% 29.86 in 10.0 mi SSW 6.9 mph - N/A   Clear
11:53 AM 93.0 °F 100.1 °F 71.1 °F 49% 29.85 in 10.0 mi West 6.9 mph - N/A   Clear
12:53 PM 97.0 °F 104.8 °F 71.1 °F 43% 29.84 in 10.0 mi Variable 3.5 mph - N/A   Clear
1:53 PM 93.9 °F 108.4 °F 77.0 °F 58% 29.83 in 10.0 mi ESE 6.9 mph - N/A   Clear
2:53 PM 96.1 °F 109.4 °F 75.9 °F 52% 29.82 in 10.0 mi South 6.9 mph - N/A   Clear
3:53 PM 96.1 °F 109.4 °F 75.9 °F 52% 29.81 in 10.0 mi SSE 10.4 mph - N/A   Clear
4:53 PM 95.0 °F 108.2 °F 75.9 °F 54% 29.81 in 10.0 mi SE 5.8 mph - N/A   Clear
5:53 PM 93.0 °F 109.7 °F 79.0 °F 63% 29.81 in 10.0 mi NE 5.8 mph - N/A   Clear
6:53 PM 91.0 °F 106.2 °F 78.1 °F 66% 29.84 in 10.0 mi East 6.9 mph - N/A   Clear
7:53 PM 88.0 °F 98.5 °F 75.9 °F 67% 29.86 in 10.0 mi ENE 5.8 mph - N/A   Mostly Cloudy
8:53 PM 87.1 °F 95.4 °F 73.9 °F 65% 29.85 in 10.0 mi ENE 5.8 mph - N/A   Clear
9:53 PM 84.9 °F 93.3 °F 75.0 °F 72% 29.87 in 10.0 mi Variable 3.5 mph - N/A   Partly Cloudy
10:53 PM 84.0 °F 92.6 °F 75.9 °F 76% 29.88 in 10.0 mi East 3.5 mph - N/A   Clear
11:53 PM 82.0 °F 90.2 °F 77.0 °F 85% 29.88 in 9.0 mi North 4.6 mph - N/A   Partly Cloudy